Buies Creek, NC

6:39 PM EST on February 09, 2016 (GMT -0500)
Harnett County

Weather History for KHRJ - January, 2014

Change the Weather History Date:

Monday, January 6, 2014

  Actual Average Record
Temperature  
Mean Temperature 42 °F -  
Max Temperature 62 °F 51 °F 73 °F (2005)
Min Temperature 22 °F 30 °F 9 °F (1981)
Degree Days  
Heating Degree Days 23    
Moisture  
Dew Point 35 °F    
Average Humidity 66    
Maximum Humidity 100    
Minimum Humidity 30    
Precipitation  
Precipitation 0.09 in - - ()
Sea Level Pressure  
Sea Level Pressure 29.83 in    
Wind  
Wind Speed 11 mph (WSW)    
Max Wind Speed 17 mph    
Max Gust Speed 30 mph    
Visibility 9 miles    
Events Rain    
Averages and records for this station are not official NWS values.
T = Trace of Precipitation, MM = Missing Value Source: NWS Daily Summary

Daily Weather History Graph

Daily Weather History Graph

Search for Another Location

Airport or City:

Trip Planner

Search our weather history database for the weather conditions in past years. The results will help you decide how hot, cold, wet, or windy it might be!

Date:

Astronomy

Jan. 06, 2014 Rise Set
Actual Time 7:24 AM EST 5:17 PM EST
Civil Twilight 6:56 AM EST 5:45 PM EST
Nautical Twilight 6:24 AM EST 6:17 PM EST
Astronomical Twilight 5:53 AM EST 6:47 PM EST
Moon 10:52 AM EST (1/6) 11:33 PM EST (1/6)
Length of Visible Light 10h 49m
Length of Day
9h 52m
Waxing Crescent, 34% of the Moon is Illuminated
Jan 6
Waxing Crescent
Jan 7
First Quarter
Jan 15
Full
Jan 24
Last Quarter
Jan 30
New

Hourly Weather History & Observations

Time (EST) Temp. Windchill Dew Point Humidity Pressure Visibility Wind Dir Wind Speed Gust Speed Precip Events Conditions
12:15 AM 56.1 °F - 56.1 °F 100% 29.80 in 2.5 mi South 9.2 mph - 0.05 in Rain Rain
12:35 AM 57.0 °F - 57.0 °F 100% 29.77 in 5.0 mi SSE 12.7 mph 19.6 mph 0.05 in Rain Light Rain
12:55 AM 57.2 °F - 57.2 °F 100% 29.76 in 1.8 mi South 11.5 mph 18.4 mph 0.06 in   Overcast
1:15 AM 57.4 °F - 57.4 °F 100% 29.74 in 1.0 mi South 10.4 mph - N/A   Overcast
1:35 AM 57.4 °F - 57.4 °F 100% 29.75 in 1.0 mi South 11.5 mph - N/A   Overcast
1:55 AM 57.2 °F - 57.2 °F 100% 29.73 in 1.5 mi South 11.5 mph - N/A   Overcast
2:15 AM 57.4 °F - 57.4 °F 100% 29.73 in 7.0 mi South 13.8 mph 19.6 mph N/A   Overcast
2:35 AM 57.7 °F - 57.7 °F 100% 29.73 in 7.0 mi South 12.7 mph 21.9 mph N/A   Overcast
2:55 AM 58.1 °F - 58.1 °F 100% 29.71 in 7.0 mi South 12.7 mph - N/A   Overcast
3:15 AM 58.5 °F - 58.5 °F 100% 29.71 in 10.0 mi South 13.8 mph - N/A   Overcast
3:35 AM 59.0 °F - 59.0 °F 100% 29.71 in 10.0 mi South 15.0 mph 19.6 mph N/A   Overcast
3:55 AM 59.9 °F - 59.4 °F 98% 29.69 in 10.0 mi South 16.1 mph 21.9 mph N/A   Overcast
4:15 AM 60.6 °F - 59.9 °F 97% 29.68 in 10.0 mi South 13.8 mph 23.0 mph N/A Rain Rain
4:35 AM 61.0 °F - 59.9 °F 96% 29.68 in 10.0 mi SSW 13.8 mph 21.9 mph N/A   Overcast
4:55 AM 61.7 °F - 60.1 °F 94% 29.68 in 10.0 mi SSW 13.8 mph 20.7 mph N/A   Overcast
5:15 AM 61.9 °F - 60.1 °F 94% 29.68 in 10.0 mi SSW 15.0 mph 24.2 mph N/A   Overcast
5:35 AM 62.4 °F - 59.5 °F 90% 29.68 in 10.0 mi SSW 11.5 mph 19.6 mph N/A   Overcast
5:55 AM 62.6 °F - 58.3 °F 86% 29.68 in 10.0 mi SW 12.7 mph 24.2 mph N/A   Overcast
6:15 AM 62.1 °F - 57.4 °F 85% 29.68 in 10.0 mi SSW 13.8 mph 24.2 mph N/A   Overcast
6:35 AM 61.9 °F - 56.7 °F 83% 29.67 in 10.0 mi SSW 15.0 mph 23.0 mph N/A   Overcast
6:55 AM 61.7 °F - 55.8 °F 81% 29.66 in 10.0 mi SSW 17.3 mph 21.9 mph N/A   Overcast
7:15 AM 61.7 °F - 55.8 °F 81% 29.67 in 10.0 mi SSW 12.7 mph 19.6 mph N/A   Overcast
7:35 AM 61.7 °F - 55.4 °F 80% 29.67 in 10.0 mi SSW 15.0 mph 23.0 mph N/A   Overcast
7:55 AM 61.7 °F - 55.4 °F 80% 29.68 in 10.0 mi SSW 13.8 mph 23.0 mph N/A   Overcast
8:15 AM 61.7 °F - 55.4 °F 80% 29.68 in 10.0 mi SSW 12.7 mph 18.4 mph N/A   Overcast
8:35 AM 61.2 °F - 55.4 °F 81% 29.68 in 7.0 mi SW 13.8 mph 18.4 mph N/A   Overcast
8:55 AM 56.7 °F - 49.8 °F 78% 29.72 in 7.0 mi West 10.4 mph 29.9 mph N/A Rain Light Rain
9:15 AM 54.5 °F - 48.2 °F 79% 29.73 in 10.0 mi West 6.9 mph 16.1 mph N/A   Overcast
9:35 AM 53.8 °F - 47.3 °F 79% 29.74 in 10.0 mi West 9.2 mph 19.6 mph N/A   Overcast
9:55 AM 53.1 °F - 45.7 °F 76% 29.75 in 10.0 mi WSW 10.4 mph 16.1 mph N/A   Overcast
10:15 AM 50.9 °F - 48.2 °F 90% 29.76 in 4.0 mi WSW 5.8 mph - 0.01 in Rain Rain
10:35 AM 48.4 °F - 46.8 °F 94% 29.76 in 5.0 mi NW 9.2 mph 18.4 mph 0.03 in Rain Light Rain
10:55 AM 47.7 °F - 45.7 °F 93% 29.76 in 10.0 mi WNW 9.2 mph 19.6 mph 0.03 in   Light Drizzle
11:15 AM 47.5 °F - 45.0 °F 91% 29.76 in 10.0 mi WNW 5.8 mph - N/A   Overcast
11:35 AM 48.0 °F - 43.9 °F 86% 29.76 in 10.0 mi WNW 8.1 mph - N/A   Overcast
11:55 AM 48.9 °F - 43.5 °F 82% 29.76 in 10.0 mi WNW 6.9 mph - N/A   Overcast
12:15 PM 46.6 °F - 36.7 °F 68% 29.76 in 10.0 mi NW 9.2 mph 20.7 mph N/A   Overcast
12:35 PM 46.4 °F 41.1 °F 36.3 °F 68% 29.76 in 10.0 mi WNW 11.5 mph 19.6 mph N/A   Overcast
12:55 PM 47.1 °F - 35.8 °F 65% 29.76 in 10.0 mi WNW 10.4 mph 19.6 mph N/A   Overcast
1:15 PM 46.9 °F - 34.9 °F 63% 29.76 in 10.0 mi NW 11.5 mph 19.6 mph N/A   Overcast
1:35 PM 46.6 °F - 32.9 °F 59% 29.77 in 10.0 mi WNW 8.1 mph 23.0 mph N/A   Overcast
1:55 PM 46.8 °F - 32.9 °F 59% 29.77 in 10.0 mi WNW 9.2 mph - N/A   Overcast
2:15 PM 47.3 °F - 32.5 °F 57% 29.78 in 10.0 mi WNW 11.5 mph 17.3 mph N/A   Overcast
2:35 PM 48.0 °F - 29.5 °F 49% 29.80 in 10.0 mi WSW 10.4 mph 19.6 mph N/A   Mostly Cloudy
2:55 PM 47.5 °F - 27.0 °F 45% 29.80 in 10.0 mi WNW 10.4 mph 20.7 mph N/A   Overcast
3:15 PM 46.6 °F - 21.4 °F 37% 29.82 in 10.0 mi WNW 10.4 mph 21.9 mph N/A   Scattered Clouds
3:35 PM 45.3 °F 39.7 °F 18.9 °F 35% 29.84 in 10.0 mi West 11.5 mph 24.2 mph N/A   Clear
3:55 PM 43.3 °F 38.6 °F 19.4 °F 38% 29.85 in 10.0 mi West 8.1 mph 19.6 mph N/A   Clear
4:15 PM 43.7 °F 37.7 °F 19.6 °F 38% 29.86 in 10.0 mi WNW 11.5 mph 17.3 mph N/A   Clear
4:35 PM 42.8 °F 38.0 °F 19.6 °F 40% 29.87 in 10.0 mi WNW 8.1 mph 19.6 mph N/A   Clear
4:55 PM 41.9 °F 36.3 °F 20.5 °F 42% 29.88 in 10.0 mi WNW 9.2 mph 16.1 mph N/A   Clear
5:15 PM 41.0 °F 38.0 °F 21.4 °F 46% 29.89 in 10.0 mi West 4.6 mph - N/A   Scattered Clouds
5:35 PM 40.5 °F 34.6 °F 16.0 °F 37% 29.90 in 10.0 mi WNW 9.2 mph 21.9 mph N/A   Scattered Clouds
5:55 PM 39.9 °F 33.4 °F 14.7 °F 36% 29.91 in 10.0 mi WNW 10.4 mph 18.4 mph N/A   Clear
6:15 PM 39.0 °F 34.0 °F 15.6 °F 39% 29.93 in 10.0 mi WNW 6.9 mph - N/A   Clear
6:35 PM 37.8 °F 32.5 °F 13.8 °F 38% 29.94 in 10.0 mi WNW 6.9 mph 21.9 mph N/A   Clear
6:55 PM 36.9 °F 28.7 °F 13.8 °F 39% 29.96 in 10.0 mi WNW 12.7 mph 20.7 mph N/A   Clear
7:15 PM 35.2 °F 25.4 °F 9.5 °F 34% 29.98 in 10.0 mi WNW 16.1 mph 21.9 mph N/A   Clear
7:35 PM 34.2 °F 27.5 °F 8.6 °F 34% 30.00 in 10.0 mi WNW 8.1 mph 23.0 mph N/A   Clear
7:55 PM 32.9 °F 23.7 °F 4.1 °F 30% 30.02 in 10.0 mi WNW 12.7 mph 28.8 mph N/A   Clear
8:15 PM 32.0 °F 22.5 °F 3.4 °F 30% 30.04 in 10.0 mi WNW 12.7 mph 19.6 mph N/A   Clear
8:35 PM 31.8 °F 22.8 °F 3.9 °F 31% 30.05 in 10.0 mi WNW 11.5 mph 21.9 mph N/A   Clear
8:55 PM 30.9 °F 21.7 °F 4.3 °F 32% 30.08 in 10.0 mi WNW 11.5 mph 21.9 mph N/A   Clear
9:15 PM 30.2 °F 20.8 °F 3.4 °F 32% 30.09 in 10.0 mi WNW 11.5 mph 20.7 mph N/A   Clear
9:35 PM 29.3 °F 19.6 °F 4.6 °F 35% 30.11 in 10.0 mi WNW 11.5 mph 20.7 mph N/A   Clear
9:55 PM 28.0 °F 18.1 °F 0.5 °F 31% 30.13 in 10.0 mi SW 11.5 mph 25.3 mph N/A   Clear
10:15 PM 27.0 °F 18.0 °F -0.4 °F 31% 30.14 in 10.0 mi WSW 9.2 mph 19.6 mph N/A   Clear
10:35 PM 25.9 °F 13.8 °F 0.7 °F 34% 30.16 in 10.0 mi SW 15.0 mph 25.3 mph N/A   Clear
10:55 PM 24.8 °F 14.0 °F 0.9 °F 36% 30.17 in 10.0 mi SW 11.5 mph 19.6 mph N/A   Clear
11:15 PM 23.7 °F 13.3 °F 0.7 °F 37% 30.18 in 10.0 mi WSW 10.4 mph 19.6 mph N/A   Clear
11:35 PM 22.8 °F 12.9 °F 0.1 °F 37% 30.18 in 10.0 mi SW 9.2 mph - N/A   Clear
11:55 PM 22.1 °F 12.0 °F -1.7 °F 35% 30.19 in 10.0 mi SW 9.2 mph 16.1 mph N/A   Clear